[[{"header":{"parameterUnit":"m.s-1","parameterCategory":1,"la1":30.2991,"la2":30.254,"lo1":-89.0895,"lo2":-89.0444,"dy":0.0017,"dx":0.0017,"nx":28,"ny":28,"refTime":"2025-11-16T03:00:00:Z","depth":0,"parameterNumber":2,"parameterNumberName":"U-component_of_WINDS"},"data":[0,0,0,0,0,0,0,0,0,0,0,0,0,0,0,0,0,0,0,0,0,0,0,0,0,0,0,0,0,0,0,0,0,0,0,0,0,0,0,0,0,0,0,0,0,0,0,0,0,0,0,0,0,0,0,0,0,0,-2.5889,-2.5891,0,-2.6009,-2.601,-2.6012,-2.606,-2.606,-2.6059,-2.6059,-2.6181,-2.6184,-2.6188,0,0,0,0,0,0,0,0,0,0,0,0,0,-2.5704,-2.5708,-2.5889,-2.5891,-2.5892,-2.6009,-2.601,-2.6012,-2.606,-2.606,-2.6059,-2.6059,-2.618,-2.6184,-2.6188,0,0,0,0,0,0,0,0,0,0,0,0,0,-2.58,-2.5709,-2.5889,-2.593,-2.5935,-2.6008,-2.601,-2.6012,-2.606,-2.606,-2.6059,-2.6059,-2.6178,-2.6183,-2.6189,-2.6229,0,0,-2.6205,-2.6207,0,0,0,0,0,0,0,0,-2.5795,-2.5807,-2.5923,-2.5928,-2.5933,-2.6019,-2.599,-2.6085,-2.606,-2.6013,-2.6059,-2.6059,-2.6127,-2.6137,-2.616,-2.6235,-2.624,-2.6205,-2.6208,-2.6211,-2.6212,0,0,0,0,0,0,0,-2.5788,-2.5802,-2.5937,-2.5924,-2.5931,-2.5943,-2.5957,-2.6008,-2.6071,-2.6017,-2.602,-2.6034,-2.613,-2.6155,-2.6163,-2.6242,-2.6205,-2.621,-2.6213,-2.6215,-2.636,-2.6361,0,0,0,0,0,0,-2.5775,-2.5796,-2.5933,-2.594,-2.5862,-2.5947,-2.5962,-2.5992,-2.607,-2.6082,-2.6034,-2.6036,-2.6146,-2.6157,-2.6168,-2.6223,-2.6211,-2.6215,-2.6219,-2.636,-2.636,-2.6361,0,0,0,0,0,0,-2.577,-2.5786,-2.5928,-2.5869,-2.5888,-2.5951,-2.5984,-2.5994,-2.6019,-2.6084,-2.6095,-2.6048,-2.6146,-2.616,-2.6215,-2.6228,-2.6218,-2.6223,-2.6359,-2.636,-2.6361,-2.6331,0,0,0,0,0,0,-2.5765,-2.5784,-2.58,-2.5869,-2.5891,-2.5972,-2.5985,-2.5997,-2.6028,-2.6031,-2.61,-2.611,-2.6147,-2.6206,-2.622,-2.6235,-2.6227,-2.6358,-2.6359,-2.636,-2.6331,-2.6331,-2.6331,0,0,0,0,0,-2.5758,-2.5786,-2.58,-2.5817,-2.5912,-2.5972,-2.5985,-2.6027,-2.6029,-2.6046,-2.6088,-2.6108,-2.6224,-2.6212,-2.6227,-2.6244,-2.6357,-2.6359,-2.636,-2.6332,-2.6331,-2.6331,0,0,0,0,0,0,-2.5715,-2.5796,-2.5813,-2.5864,-2.5911,-2.5981,-2.6002,-2.6025,-2.6072,-2.6073,-2.6123,-2.6138,-2.6188,-2.6222,-2.6206,-2.6289,-2.6292,-2.6297,-2.6265,-2.6266,-2.6265,-2.6256,-2.6231,0,0,0,0,0,-2.5712,-2.5754,-2.5822,-2.5861,-2.5884,-2.5939,-2.5967,-2.5996,-2.6046,-2.6066,-2.6112,-2.6161,-2.6209,-2.6239,-2.6286,-2.6337,-2.6354,-2.6356,-2.6356,-2.6356,-2.6359,-2.6391,-2.6394,-2.6366,-2.6366,-2.6366,0,0,-2.5705,-2.5754,-2.5778,-2.5854,-2.5894,-2.5937,-2.5956,-2.6,-2.6033,-2.6073,-2.6128,-2.6163,-2.6221,-2.6274,-2.63,-2.6304,-2.6371,-2.6358,-2.6357,-2.6361,-2.6393,-2.6396,-2.6398,-2.6367,-2.6367,-2.6367,0,0,-2.5715,-2.5756,-2.5794,-2.5834,-2.5895,-2.5932,-2.5942,-2.6009,-2.6034,-2.609,-2.6122,-2.6162,-2.6242,-2.6284,-2.6315,-2.6344,-2.6366,-2.6358,-2.6357,-2.6388,-2.639,-2.6392,-2.6404,-2.6408,-2.6361,-2.6361,-2.6361,0,-2.5699,-2.5765,-2.581,-2.5855,-2.5888,-2.5927,-2.5967,-2.6004,-2.6077,-2.61,-2.6103,-2.6207,-2.6248,-2.6313,-2.632,-2.6344,-2.6357,-2.635,-2.6386,-2.6389,-2.6391,-2.6404,-2.6408,-2.636,-2.636,-2.636,-2.6361,0,-2.5743,-2.5789,-2.5813,-2.5884,-2.592,-2.5961,-2.6014,-2.6045,-2.6071,-2.6108,-2.6166,-2.6218,-2.6278,-2.6295,-2.632,-2.6364,-2.6365,-2.6376,-2.6381,-2.6392,-2.6404,-2.6409,-2.6358,-2.6359,-2.6359,-2.636,0,0,-2.5728,-2.5825,-2.5833,-2.5867,-2.5939,-2.5976,-2.602,-2.6079,-2.6106,-2.6156,-2.6195,-2.6264,-2.6276,-2.6312,-2.6343,-2.6369,-2.6392,-2.6378,-2.638,-2.638,-2.6446,-2.6438,-2.6442,-2.6407,-2.6408,-2.6409,-2.6442,0,-2.5748,-2.5829,-2.5872,-2.5935,-2.598,-2.602,-2.6059,-2.6107,-2.6144,-2.6188,-2.6228,-2.6277,-2.6289,-2.6311,-2.6339,-2.6383,-2.6406,-2.6381,-2.6445,-2.6447,-2.643,-2.6448,-2.6439,-2.6467,-2.6447,-2.6448,-2.6448,0,-2.5782,-2.5833,-2.59,-2.597,-2.599,-2.6024,-2.6084,-2.6125,-2.6182,-2.6207,-2.6248,-2.6279,-2.6329,-2.6331,-2.6401,-2.6383,-2.6413,-2.6439,-2.6441,-2.6448,-2.6448,-2.6457,-2.6477,-2.6481,-2.6456,-2.6455,-2.6455,0,-2.5765,-2.5851,-2.5903,-2.5931,-2.6013,-2.6036,-2.6071,-2.6128,-2.6162,-2.6215,-2.6237,-2.6294,-2.6326,-2.637,-2.6416,-2.6413,-2.6483,-2.6488,-2.6506,-2.6505,-2.6519,-2.6517,-2.6544,-2.6537,-2.6537,-2.6537,-2.6536,0,-2.5784,-2.5824,-2.5897,-2.5929,-2.5976,-2.6027,-2.6072,-2.6111,-2.6161,-2.6203,-2.6241,-2.6279,-2.6337,-2.6383,-2.642,-2.6474,-2.6488,-2.651,-2.652,-2.6507,-2.6504,-2.6527,-2.6526,-2.6538,-2.6537,-2.6537,-2.6537,0,-2.5773,-2.5823,-2.5883,-2.5957,-2.5976,-2.6008,-2.6071,-2.6105,-2.6145,-2.6197,-2.6212,-2.6274,-2.6331,-2.6382,-2.6456,-2.6481,-2.6536,-2.6548,-2.6517,-2.6522,-2.6539,-2.6537,-2.6581,-2.659,-2.6575,-2.6575,-2.6576,0,-2.5781,-2.5813,-2.5891,-2.5922,-2.5957,-2.6005,-2.6041,-2.6093,-2.6128,-2.6198,-2.6224,-2.6283,-2.6333,-2.6422,-2.6474,-2.6532,-2.6546,-2.6557,-2.6554,-2.6542,-2.6547,-2.6545,-2.655,-2.6557,-2.6557,-2.6556,-2.6556,0,-2.5791,-2.5815,-2.5865,-2.5924,-2.5966,-2.6015,-2.6065,-2.6088,-2.615,-2.6188,-2.6247,-2.6286,-2.6364,-2.6423,-2.6487,-2.6525,-2.6551,-2.6557,-2.6565,-2.6552,-2.6534,-2.6546,-2.6517,-2.6556,-2.6556,-2.6556,-2.6556,-2.6556,-2.5791,-2.5822,-2.5883,-2.5938,-2.5982,-2.6029,-2.6065,-2.611,-2.616,-2.6227,-2.6255,-2.6315,-2.6375,-2.6464,-2.6502,-2.6551,-2.6556,-2.6566,-2.6569,-2.6571,-2.6569,-2.6526,-2.6562,-2.6562,-2.6563,-2.6563,-2.6563,0,-2.5804,-2.5846,-2.5896,-2.5966,-2.601,-2.6032,-2.609,-2.6125,-2.6178,-2.6231,-2.6281,-2.6349,-2.6408,-2.6466,-2.6528,-2.6556,-2.657,-2.6571,-2.6569,-2.6578,-2.6561,-2.6548,-2.6558,-2.6558,-2.6558,-2.6558,-2.6558,-2.6558,-2.5816,-2.5871,-2.5903,-2.5981,-2.6023,-2.6083,-2.6114,-2.6158,-2.6202,-2.6277,-2.6326,-2.6364,-2.642,-2.6487,-2.6542,-2.6558,-2.658,-2.6577,-2.6596,-2.6579,-2.6579,-2.6579,-2.6567,-2.6581,-2.6581,-2.661,-2.661,-2.661]},{"header":{"parameterUnit":"m.s-1","parameterCategory":1,"la1":30.2991,"la2":30.254,"lo1":-89.0895,"lo2":-89.0444,"dy":0.0017,"dx":0.0017,"nx":28,"ny":28,"refTime":"2025-11-16T03:00:00:Z","depth":0,"parameterNumber":3,"parameterNumberName":"V-component_of_WINDS"},"data":[0,0,0,0,0,0,0,0,0,0,0,0,0,0,0,0,0,0,0,0,0,0,0,0,0,0,0,0,0,0,0,0,0,0,0,0,0,0,0,0,0,0,0,0,0,0,0,0,0,0,0,0,0,0,0,0,0,0,-1.7659,-1.7659,0,-1.7697,-1.7698,-1.7698,-1.7688,-1.7687,-1.7686,-1.7686,-1.7722,-1.7724,-1.7725,0,0,0,0,0,0,0,0,0,0,0,0,0,-1.7575,-1.7576,-1.7659,-1.7659,-1.766,-1.7697,-1.7698,-1.7698,-1.7688,-1.7687,-1.7686,-1.7685,-1.7721,-1.7723,-1.7725,0,0,0,0,0,0,0,0,0,0,0,0,0,-1.7612,-1.7577,-1.7659,-1.7659,-1.766,-1.7697,-1.7698,-1.7698,-1.7688,-1.7687,-1.7686,-1.7685,-1.7721,-1.7723,-1.7726,-1.7764,0,0,-1.7733,-1.7734,0,0,0,0,0,0,0,0,-1.761,-1.7615,-1.7659,-1.7659,-1.766,-1.7687,-1.7681,-1.772,-1.7688,-1.7677,-1.7686,-1.7684,-1.7711,-1.7714,-1.7724,-1.7765,-1.7767,-1.7734,-1.7735,-1.7736,-1.7737,0,0,0,0,0,0,0,-1.7607,-1.7613,-1.7674,-1.7659,-1.766,-1.7657,-1.7661,-1.7688,-1.77,-1.7678,-1.7678,-1.7682,-1.7711,-1.7721,-1.7724,-1.7767,-1.7733,-1.7736,-1.7737,-1.7738,-1.7843,-1.7844,0,0,0,0,0,0,-1.7605,-1.7611,-1.7673,-1.7675,-1.7632,-1.7659,-1.7664,-1.7679,-1.77,-1.7702,-1.7683,-1.7682,-1.7718,-1.7722,-1.7726,-1.7772,-1.7736,-1.7738,-1.774,-1.7842,-1.7843,-1.7845,0,0,0,0,0,0,-1.7603,-1.761,-1.7671,-1.7643,-1.7651,-1.7662,-1.7679,-1.768,-1.7691,-1.7704,-1.7705,-1.7692,-1.7717,-1.7722,-1.7755,-1.7773,-1.774,-1.7742,-1.784,-1.7842,-1.7844,-1.7865,0,0,0,0,0,0,-1.76,-1.761,-1.7625,-1.7643,-1.7652,-1.77,-1.768,-1.7682,-1.7696,-1.7694,-1.7712,-1.7714,-1.7716,-1.7751,-1.7757,-1.7776,-1.7744,-1.7838,-1.7841,-1.7843,-1.7863,-1.7868,-1.7872,0,0,0,0,0,-1.7597,-1.7628,-1.7625,-1.7633,-1.7671,-1.7701,-1.7706,-1.7709,-1.7697,-1.7712,-1.772,-1.7713,-1.777,-1.7754,-1.7761,-1.7781,-1.7837,-1.784,-1.7843,-1.7861,-1.7867,-1.7872,0,0,0,0,0,0,-1.761,-1.7631,-1.7628,-1.7666,-1.7682,-1.77,-1.7719,-1.7715,-1.7734,-1.7732,-1.7734,-1.7738,-1.7771,-1.7779,-1.7761,-1.7819,-1.7802,-1.7806,-1.7813,-1.7819,-1.7823,-1.7821,-1.7746,0,0,0,0,0,-1.7618,-1.7641,-1.7657,-1.7689,-1.7698,-1.7707,-1.772,-1.7721,-1.7738,-1.7744,-1.7754,-1.777,-1.7791,-1.7805,-1.7826,-1.7864,-1.7868,-1.7881,-1.7885,-1.7889,-1.7893,-1.7914,-1.7921,-1.7854,-1.7854,-1.7854,0,0,-1.7633,-1.7647,-1.7661,-1.7692,-1.7705,-1.7729,-1.7713,-1.7738,-1.7756,-1.7747,-1.7779,-1.7788,-1.7805,-1.7841,-1.7857,-1.7849,-1.7912,-1.7893,-1.7895,-1.7897,-1.7918,-1.7924,-1.793,-1.7856,-1.7856,-1.7855,0,0,-1.7673,-1.7686,-1.7714,-1.7728,-1.7748,-1.7754,-1.7761,-1.7779,-1.7785,-1.7817,-1.7811,-1.7832,-1.7868,-1.7881,-1.7893,-1.7938,-1.7933,-1.7945,-1.7968,-1.7989,-1.7994,-1.7999,-1.8016,-1.8022,-1.7949,-1.7949,-1.7949,0,-1.7689,-1.7725,-1.7729,-1.7756,-1.777,-1.7765,-1.7793,-1.7806,-1.7831,-1.784,-1.783,-1.7877,-1.7888,-1.7927,-1.7939,-1.7948,-1.7956,-1.7943,-1.7993,-1.7998,-1.8002,-1.8019,-1.8025,-1.795,-1.795,-1.795,-1.795,0,-1.7745,-1.777,-1.779,-1.7817,-1.7832,-1.786,-1.7867,-1.7883,-1.7883,-1.7889,-1.7922,-1.7936,-1.7959,-1.7968,-1.7968,-1.8008,-1.8002,-1.7993,-1.7975,-1.801,-1.8025,-1.8031,-1.7952,-1.7951,-1.7951,-1.7951,0,0,-1.7793,-1.7822,-1.7829,-1.7842,-1.7864,-1.7883,-1.791,-1.7934,-1.7948,-1.7965,-1.7988,-1.8019,-1.8012,-1.8024,-1.8025,-1.8043,-1.808,-1.8032,-1.8032,-1.8041,-1.8125,-1.8132,-1.814,-1.8076,-1.8077,-1.8078,-1.8124,0,-1.7836,-1.7885,-1.7889,-1.7933,-1.7957,-1.7953,-1.7977,-1.7992,-1.7999,-1.802,-1.8027,-1.805,-1.8037,-1.8045,-1.8063,-1.8072,-1.8097,-1.8068,-1.8097,-1.8098,-1.8094,-1.8147,-1.8155,-1.8198,-1.813,-1.8131,-1.8132,0,-1.7892,-1.7913,-1.7959,-1.7979,-1.7989,-1.801,-1.8033,-1.8053,-1.8071,-1.8075,-1.809,-1.8088,-1.8116,-1.8097,-1.8135,-1.8116,-1.8128,-1.8133,-1.8135,-1.8138,-1.8117,-1.8153,-1.8211,-1.8218,-1.8141,-1.814,-1.8139,0,-1.7923,-1.7963,-1.7996,-1.8007,-1.803,-1.8046,-1.8056,-1.8073,-1.8087,-1.8107,-1.8116,-1.8138,-1.815,-1.8167,-1.8171,-1.8157,-1.8209,-1.8191,-1.8213,-1.8213,-1.8225,-1.8224,-1.8287,-1.8232,-1.8232,-1.8231,-1.8231,0,-1.797,-1.7999,-1.8011,-1.8032,-1.8064,-1.8069,-1.81,-1.8109,-1.8124,-1.8146,-1.8143,-1.8164,-1.8168,-1.8189,-1.8193,-1.8224,-1.8229,-1.8233,-1.8233,-1.8234,-1.8233,-1.8242,-1.8239,-1.8233,-1.8233,-1.8232,-1.8232,0,-1.8011,-1.802,-1.8057,-1.8077,-1.8082,-1.8105,-1.8122,-1.8141,-1.8148,-1.8176,-1.8183,-1.8194,-1.8219,-1.8225,-1.8254,-1.8256,-1.8293,-1.8291,-1.8288,-1.8288,-1.831,-1.8308,-1.8381,-1.8391,-1.8329,-1.8329,-1.833,0,-1.8041,-1.8063,-1.8086,-1.8102,-1.8113,-1.8137,-1.8152,-1.8158,-1.8174,-1.8196,-1.8213,-1.8238,-1.8258,-1.8298,-1.8308,-1.833,-1.8328,-1.8352,-1.8332,-1.8331,-1.833,-1.8328,-1.8331,-1.8356,-1.8357,-1.8357,-1.8358,0,-1.8093,-1.8097,-1.8119,-1.8144,-1.8163,-1.8182,-1.8201,-1.8213,-1.8221,-1.8239,-1.8265,-1.8281,-1.8311,-1.8336,-1.8359,-1.8368,-1.8365,-1.8364,-1.8371,-1.8371,-1.8369,-1.8371,-1.8299,-1.8363,-1.8362,-1.8362,-1.8362,-1.8361,-1.8129,-1.815,-1.817,-1.8195,-1.821,-1.8228,-1.8247,-1.8258,-1.828,-1.8306,-1.8308,-1.8336,-1.8354,-1.8384,-1.8395,-1.8417,-1.841,-1.8419,-1.8422,-1.8424,-1.8427,-1.8365,-1.8421,-1.8421,-1.8421,-1.8421,-1.8421,0,-1.8182,-1.8195,-1.8218,-1.8245,-1.8266,-1.8261,-1.8282,-1.8299,-1.8324,-1.8342,-1.8362,-1.8393,-1.8417,-1.8429,-1.8453,-1.8468,-1.8467,-1.8474,-1.8473,-1.8476,-1.8431,-1.8424,-1.8475,-1.8475,-1.8475,-1.8475,-1.8475,-1.8475,-1.8211,-1.8246,-1.8252,-1.8294,-1.8306,-1.8335,-1.8347,-1.8364,-1.8378,-1.8412,-1.8433,-1.8441,-1.8456,-1.8482,-1.8503,-1.8506,-1.8515,-1.8524,-1.8526,-1.8484,-1.8479,-1.8474,-1.8466,-1.8526,-1.8526,-1.8569,-1.8569,-1.8569]}]]